TIANWANG 1A (TW-1A)
1 40928U 15051D   19298.91040572  .00002288  00000-0  56666-4 0  9995
2 40928  97.1357 327.3265 0010114 333.0637 148.7128 15.41392291229075
LAPAN A2
1 40931U 15052B   19298.08603472 -.00000769  00000-0 -19656-3 0  9993
2 40931   5.9852 220.8114 0010501 166.6827 193.4547 14.76605714220276
LQSAT
1 40958U 15057A   19298.75867208  .00000022  00000-0  11047-4 0  9997
2 40958  97.8859   4.3812 0018141 182.7494 177.3617 14.73093137217800
CHUBUSAT 2
1 41338U 16012B   19297.70887653  .00000350  00000-0  20487-4 0  9994
2 41338  31.0039  51.1794 0013944 291.4793  68.4355 15.00197198202152
CHUBUSAT 3
1 41339U 16012C   19298.66144164  .00000304  00000-0  16870-4 0  9994
2 41339  31.0105  43.0521 0013834 308.1528  51.7857 15.00369335202296
OUFTI-1
1 41458U 16025C   19298.22568699  .00001511  00000-0  80781-4 0  9998
2 41458  98.1004  31.6085 0164385 284.9547  73.3531 15.06102383191917
E-STAR-2
1 41459U 16025D   19298.80508947  .00001541  00000-0  82790-4 0  9998
2 41459  98.1003  31.8037 0165784 284.3510  73.9358 15.05725464191973
AAUSAT 4
1 41460U 16025E   19298.74844509  .00001478  00000-0  77709-4 0  9993
2 41460  98.0932  33.3187 0155845 276.0840  82.2665 15.07713913192118
NUSAT 1
1 41557U 16033B   19298.78346491  .00001697  00000-0  65789-4 0  9998
2 41557  97.4145  25.5252 0013298 195.1642 164.9201 15.27469211189791
BEESAT 4
1 41619U 16040W   19298.73028561  .00001785  00000-0  77892-4 0  9991
2 41619  97.3534 358.4673 0009664 293.0114  67.0103 15.23397003173501
PRATHAM
1 41783U 16059A   19298.38397044  .00000058  00000-0  20593-4 0  9997
2 41783  98.0528 355.0244 0033016 341.4820  18.5178 14.63015764164362
ALSAT 1N
1 41789U 16059G   19298.74105008  .00000086  00000-0  25401-4 0  9994
2 41789  98.0555 357.6523 0027733 329.5935  30.3656 14.64270201164531
NAYIF 1
1 42017U 17008BX  19298.24956049  .00001950  00000-0  79043-4 0  9990
2 42017  97.3903   3.9477 0007883  79.9973 280.2154 15.25821657149522
MAX VALIER SAT
1 42778U 17036P   19298.70976103  .00001278  00000-0  58510-4 0  9998
2 42778  97.3400 353.4415 0013750 127.2277 233.0216 15.22203041129865
